Location: The Jewett Observatory
(46.7288°N, 117.1525°W)
Time: 12:10:57
(UTC-08:00)

Daily predictions for brighter satellites

Satellite Brightness Start Highest point End
(mag) Time Altitude Azimuth Time Altitude Azimuth Time Altitude Azimuth
Cosmos 1814 Rocket 4.2 16:57:15 10° S 17:02:30 62° ESE 17:07:48 10° NNE
Cosmos 1634 Rocket 4.4 16:57:07 10° N 17:02:52 38° ENE 17:08:34 10° SE
Cosmos 990 Rocket 4.0 16:57:36 10° NNW 17:02:54 78° ENE 17:08:09 10° SSE
CZ-4C R/B 4.1 16:58:59 10° WNW 17:03:17 20° NNW 17:08:01 10° NNE
MSX 3.9 16:58:15 10° SSE 17:03:50 59° ENE 17:09:29 10° N
NOSS 3-2 (A) 4.2 16:58:23 10° WSW 17:04:23 51° NW 17:11:03 10° NE
COSMOS 2428 3.0 17:01:01 10° S 17:06:30 51° ESE 17:12:02 10° NE
SJ-12 4.0 17:02:30 10° SSE 17:06:38 88° ENE 17:10:48 10° NNW
Cosmos 1300 4.0 17:04:33 10° NNE 17:07:31 21° ENE 17:10:28 10° ESE
NOSS 3-2 (C) 4.1 17:02:16 10° WSW 17:08:20 57° NW 17:15:05 10° NE
Cosmos 2221 3.7 17:04:29 10° NNW 17:08:36 47° W 17:12:41 10° SSW
Cosmos 1726 3.4 17:06:16 10° NNE 17:09:15 22° ENE 17:12:14 10° ESE
Cosmos 2237 Rocket 3.6 17:06:26 10° SE 17:10:17 19° E 17:14:09 10° NE
Cosmos 2237 4.3 17:05:59 10° SSW 17:11:37 67° ESE 17:17:19 10° NNE
ALOS 4.1 17:11:04 10° ENE 17:12:34 11° NE 17:14:05 10° NE
Lacrosse 5 rocket 2.0 17:12:06 10° NW 17:15:30 32° NNE 17:19:02 10° E
OTV 4 3.1 17:14:48 10° SW 17:16:40 15° S 17:18:31 10° SE
IDEFIX/ARIANE 42P 2.8 17:12:08 10° S 17:17:21 78° WSW 17:22:38 10° NNW
Cosmos 371 Rocket 4.1 17:16:17 10° SSE 17:20:27 30° ESE 17:24:39 10° NE
CZ-4 R/B 1.9 17:17:07 10° S 17:20:57 61° WSW 17:24:51 10° NNW
Cosmos 841 Rocket 3.8 17:15:54 10° S 17:20:58 50° ESE 17:26:04 10° NNE
Cosmos 1937 Rocket 4.5 17:23:31 10° NNW 17:28:33 52° WSW 17:33:35 10° S
Cosmos 468 Rocket 4.4 17:23:24 10° SSW 17:28:33 65° WNW 17:33:41 10° NNE
Cosmos 1766 Rocket 4.0 17:26:44 10° SSW 17:31:10 68° W 17:35:37 10° N
Cosmos 2084 4.4 17:29:15 10° S 17:32:29 26° ESE 17:34:44 15° ENE
SMAP 3.7 17:28:35 10° S 17:33:11 61° WSW 17:37:49 10° NNW
Meteor 1-28 Rocket 4.2 17:30:09 10° NE 17:33:16 25° E 17:36:22 10° SSE
Cosmos 2322 4.3 17:27:47 10° SW 17:33:23 58° WNW 17:39:02 10° NNE
Resurs 01 Rocket 3.2 17:31:55 12° E 17:33:54 16° ENE 17:36:33 10° NNE
Cosmos 1328 4.2 17:34:07 10° SSE 17:37:48 39° E 17:41:31 10° NNE
COSMO-SKYMED 1 2.9 17:33:56 10° NNE 17:38:07 44° E 17:42:16 10° S
Aureole 2 Rocket 4.4 17:36:21 10° SE 17:38:28 15° E 17:38:34 15° E
CENTAUR R/B 2.6 17:32:21 10° SW 17:38:29 85° SE 17:45:32 10° NE
Cosmos 1844 Rocket 3.0 17:33:25 10° NNW 17:39:05 72° WSW 17:44:42 10° SSE
Meteor 2-2 Rocket 4.2 17:33:32 10° N 17:39:13 87° E 17:44:51 10° S
Cosmos 44 Rocket 3.9 17:34:33 10° S 17:39:21 41° ESE 17:43:11 15° NE
Lacrosse 5 2.9 17:35:04 10° W 17:39:47 38° NNW 17:43:59 13° NE
SL-16 R/B 4.1 17:35:43 10° W 17:40:12 24° NW 17:44:44 10° N
YAOGAN 1 3.4 17:37:58 10° S 17:42:12 54° W 17:46:29 10° NNW
Cosmos 2228 Rocket 3.4 17:39:46 10° NNW 17:44:10 69° W 17:48:33 10° S
CZ-2C R/B 3.8 17:40:00 10° S 17:44:45 44° W 17:49:24 10° NNW
Cosmos 2333 4.2 17:42:15 10° SSW 17:47:51 89° SE 17:53:30 10° NNE
SJ-6B 3.5 17:47:05 10° SE 17:50:47 34° ENE 17:54:32 10° N
Cosmos 2279 Rocket 4.0 17:49:10 10° N 17:55:16 56° ENE 18:01:22 10° SSE
Cosmos 2360 Rocket 3.5 17:50:58 10° WSW 17:56:08 37° NW 18:01:21 10° NNE
Cosmos 1980 3.9 17:51:49 10° S 17:57:14 48° ESE 18:01:38 16° NE
Cosmos 2058 3.3 17:54:28 10° SSE 17:58:17 39° E 18:01:13 16° NNE
Cosmos 1703 4.4 18:02:12 10° SSE 18:04:47 25° ESE 18:04:47 25° ESE
FENGYUN 3A 4.1 18:03:36 10° SE 18:08:27 36° ENE 18:13:20 10° N
Cosmos 1763 Rocket 4.1 18:03:43 10° SW 18:08:51 56° WNW 18:13:57 10° NNE
Cosmos 2333 Rocket 2.1 18:04:12 10° SSW 18:09:48 70° ESE 18:14:23 16° NNE
Cosmos 2180 Rocket 4.4 18:07:23 10° N 18:13:31 63° ENE 18:19:39 10° SSE
Cosmos 372 Rocket 3.8 18:08:37 10° NNW 18:13:45 83° ENE 18:18:51 10° SSE
Orbus 7S? 4.4 18:10:15 10° NW 18:13:46 43° NE 18:16:33 27° E
Meteor 2-10 3.8 18:09:25 10° N 18:14:30 76° ENE 18:19:41 10° SSE
ATLAS 5 CENTAUR R/B 4.0 18:13:06 10° NNW 18:16:18 15° N 18:17:47 14° NNE
Nadezhda 4 Rocket 4.4 18:13:29 10° SSE 18:19:09 38° E 18:24:54 10° NNE
Cosmos 1340 Rocket 2.9 18:16:33 10° S 18:20:22 50° E 18:21:05 43° ENE
METEOR-M 4.0 18:15:19 10° SSE 18:20:40 81° ENE 18:26:04 10° NNW
DNEPR-1 R/B 4.3 18:14:44 10° SSW 18:21:34 81° SE 18:25:02 25° NE
Meteor 1-27 4.3 18:16:53 10° N 18:22:42 90° ENE 18:28:33 10° S
Cosmos 2219 Rocket 2.3 18:17:15 10° SSW 18:22:54 76° WNW 18:27:46 14° NNE
Cosmos 2151 3.0 18:20:21 10° SSW 18:24:33 79° W 18:28:47 10° N
Cosmos 2278 Rocket 2.5 18:20:07 10° NNW 18:25:47 68° WSW 18:31:24 10° SSE
SKYMED 2 4.1 18:21:59 10° N 18:26:16 59° WNW 18:30:31 10° SSW
SL-14 R/B 3.5 18:25:02 10° SSW 18:28:55 70° W 18:32:35 12° N
Cosmos 540 Rocket 3.4 18:23:51 10° SSW 18:29:02 84° ESE 18:32:34 21° NNE
Cosmos 1626 4.2 18:26:35 10° SSE 18:27:22 15° SSE 18:27:22 15° SSE
Cosmos 1151 Rocket 4.2 18:28:28 10° NNW 18:32:31 43° W 18:36:34 10° SSW
Cosmos 1805 Rocket 3.5 18:28:57 10° S 18:33:19 59° E 18:34:22 45° NE
Cosmos 783 Rocket 4.4 18:29:13 10° SSW 18:34:30 73° ESE 18:37:19 28° NNE
Cosmos 1092 Rocket 4.4 18:30:48 10° SSE 18:36:32 38° E 18:36:36 38° E
USA 215 3.9 18:35:01 10° SSE 18:41:26 55° SW 18:47:52 10° WNW
ATLAS 3B R/B 4.3 18:39:19 10° NW 18:44:21 19° N 18:46:53 16° NNE
Cosmos 1726 4.2 18:41:20 10° NNW 18:44:37 28° W 18:47:52 10° SSW
Timation 1 Rocket 4.3 18:41:23 10° NNW 18:47:27 84° WSW 18:53:27 10° SSE
ALOS 2.1 18:44:34 10° SSE 18:49:14 79° ENE 18:53:55 10° N
COSMOS 2428 4.3 18:46:00 10° WSW 18:51:02 31° NW 18:56:00 10° NNE
Cosmos 44 3.4 18:47:08 10° SW 18:52:23 82° NW 18:53:37 52° NNE
Cosmos 2237 Rocket 2.4 18:48:06 10° SW 18:53:43 71° WNW 18:56:46 28° NNE
CZ-4C R/B 4.1 18:49:39 10° NNW 18:54:22 20° NNE 18:55:11 20° NNE
Lacrosse 5 rocket 1.8 18:51:09 10° WNW 18:54:50 50° SW 18:55:10 48° SSW
Spot 2 Rocket 3.3 18:51:19 10° SSE 18:56:22 86° ENE 19:01:27 10° NNW
Cosmos 2369 Rocket 3.9 18:52:32 10° N 18:54:51 19° NNE 18:54:51 19° NNE
Sich 1 4.3 18:52:43 10° S 18:55:02 30° S 18:55:02 30° S
SL-16 R/B 2.2 18:52:51 10° S 18:58:16 60° ESE 18:58:16 60° ESE
Cosmos 1538 Rocket 4.4 18:59:09 10° S 19:03:08 48° SSE 19:03:08 48° SSE
Cosmos 2297 3.9 18:59:16 10° NNW 19:04:56 70° WSW 19:09:08 19° SSE
Resurs 01 Rocket 1.9 19:09:28 64° SW 19:09:52 68° WSW 19:14:20 10° NNW
Lacrosse 4 Rocket 3.6 19:06:33 10° NNW 19:07:28 16° NNW 19:07:28 16° NNW
Aureole 2 Rocket 4.0 19:09:50 10° SW 19:12:28 38° WSW 19:12:28 38° WSW
Lacrosse 5 3.5 19:19:41 10° NW 19:23:12 25° NNW 19:23:12 25° NNW
CENTAUR R/B 4.0 19:24:18 10° W 19:30:03 32° NNW 19:32:51 24° N
Cosmos 2333 Rocket 4.1 19:50:07 10° W 19:54:38 24° NW 19:56:26 21° NNW
ATLAS 5 CENTAUR R/B 4.3 19:57:40 10° NNW 19:59:21 18° NNW 19:59:21 18° NNW
SL-16 R/B 4.5 20:38:09 10° WSW 20:40:13 19° W 20:40:13 19° W
